Location: Falniów
(50.3639°N, 19.9642°E)
Time: 10:19:53
(UTC+00:00)

Thor Agena Rocket - Pass Details

Date: 18 January 2026
Orbit: 755 x 801 km, 99.1° (Epoch: 19 February)

Event Time Altitude Azimuth Distance (km) Brightness Sun altitude
Rises 05:37:58 0° 13° (NNE) 3,246 6.7 -8.5°
Reaches altitude 10° 05:40:17 10° 11° (NNE) 2,321 5.9 -8.1°
Maximum altitude 05:45:21 68° 290° (WNW) 835 3.5 -7.4°
Drops below altitude 10° 05:50:28 10° 208° (SSW) 2,334 6.0 -6.6°
Sets 05:52:47 0° 206° (SSW) 3,266 6.8 -6.3°
